Simultaneous Nadir Overpasses (SNOs) Predictions

Prediction of SNOs near US between AQUA and NPP Satellite Orbit:

Table of predicted SNOs near US for the next 10.0 days since TLE Epoch: 4/24/2020
Index Date (AQUA) Time (AQUA) AQUA Lat,Lon Date (NPP) Time (NPP) NPP Lat,Lon Distance(km) Time Diff (sec)
1 04/25/2020 06:30:56 45.13, -65.51 04/25/2020 06:30:33 45.48, -67.52 161.96 23
2 04/25/2020 08:08:29 49.89, -88.38 04/25/2020 08:10:38 50.37, -90.85 183.97 129
3 04/25/2020 09:47:22 49.89,-113.10 04/25/2020 09:52:06 50.48,-116.17 228.42 284
4 04/27/2020 19:06:38 49.99, -92.56 04/27/2020 19:00:55 49.67, -94.42 138.10 343
5 04/27/2020 20:45:31 49.99,-117.28 04/27/2020 20:42:23 49.56,-119.75 183.37 188
6 05/03/2020 07:18:59 49.89, -76.01 05/03/2020 07:19:53 50.33, -78.18 161.90 54
7 05/03/2020 08:57:52 49.89,-100.73 05/03/2020 09:01:21 50.44,-103.50 206.40 209




NCC Satellite Simultaneous Nadir Overpasses (SNOs) Prediction Service
